Location: *
(51.0333°S, 178.4667°E)
Time: 11:18:15
(UTC+00:00)

Cosmos 2297 Rocket - Pass Details

Date: 15 November 2019
Orbit: 840 x 843 km, 71.0° (Epoch: 06 December)

Event Time Altitude Azimuth Distance (km) Brightness Sun altitude
Rises 08:55:14 0° 331° (NNW) 3,403 5.2 -10.6°
Reaches altitude 10° 08:57:40 10° 330° (NNW) 2,475 4.4 -10.9°
Maximum altitude 09:03:23 87° 242° (WSW) 863 2.3 -11.4°
Drops below altitude 10° 09:09:09 10° 150° (SSE) 2,500 4.9 -12.0°
Sets 09:11:37 0° 150° (SSE) 3,440 5.7 -12.3°
